| time (UTC) | temp C | wind direction | speed KPH | gust KPH | rain 1hr cm | rain 24hr cm | rain mn cm | humidity % | barometer mb |
| 20260506203055 | 8 | 323 | 1.6 | 4.8 | 0.00 | 0.99 | 0.79 | 87 | 1010.8 |
| 20260506201535 | 9 | 345 | 3.2 | 6.4 | 0.00 | 0.99 | 0.79 | 87 | 1010.7 |
| 20260506200058 | 10 | 337 | 4.8 | 9.7 | 0.00 | 0.99 | 0.79 | 87 | 1010.6 |
| 20260506194531 | 10 | 304 | 3.2 | 8.0 | 0.00 | 1.17 | 0.79 | 87 | 1010.4 |
| 20260506193102 | 10 | 360 | 3.2 | 8.0 | 0.00 | 1.17 | 0.79 | 88 | 1010.2 |
| 20260506191530 | 10 | 292 | 3.2 | 6.4 | 0.00 | 1.17 | 0.79 | 87 | 1010.2 |
| 20260506190100 | 10 | 55 | 1.6 | 3.2 | 0.00 | 1.17 | 0.79 | 87 | 1010.1 |
| 20260506184525 | 10 | 55 | 0.0 | 0.0 | 0.00 | 1.32 | 0.79 | 87 | 1010.1 |
| 20260506183106 | 10 | 55 | 0.0 | 0.0 | 0.00 | 1.32 | 0.79 | 86 | 1010.0 |
| 20260506181527 | 11 | 55 | 0.0 | 0.0 | 0.00 | 1.32 | 0.79 | 86 | 1009.7 |
| 20260506180055 | 11 | 55 | 0.0 | 1.6 | 0.00 | 1.32 | 0.79 | 86 | 1009.6 |
| 20260506174517 | 11 | 55 | 0.0 | 4.8 | 0.00 | 1.37 | 0.79 | 86 | 1009.5 |
| 20260506173050 | 11 | 72 | 1.6 | 8.0 | 0.00 | 1.37 | 0.79 | 86 | 1009.2 |
| 20260506171518 | 11 | 321 | 3.2 | 4.8 | 0.00 | 1.37 | 0.79 | 85 | 1009.0 |
| 20260506164507 | 11 | 287 | 1.6 | 6.4 | 0.00 | 1.40 | 0.79 | 84 | 1008.8 |
| 20260506163031 | 11 | 286 | 3.2 | 8.0 | 0.00 | 1.40 | 0.79 | 83 | 1008.9 |
| 20260506161555 | 11 | 288 | 3.2 | 12.9 | 0.00 | 1.40 | 0.79 | 82 | 1008.9 |
| 20260506160019 | 12 | 292 | 6.4 | 14.5 | 0.00 | 1.40 | 0.79 | 81 | 1008.9 |
| 20260506154549 | 12 | 271 | 4.8 | 12.9 | 0.00 | 1.40 | 0.79 | 82 | 1008.8 |
| 20260506153012 | 12 | 251 | 4.8 | 9.7 | 0.00 | 1.40 | 0.79 | 83 | 1008.7 |
| 20260506151542 | 12 | 288 | 6.4 | 9.7 | 0.00 | 1.40 | 0.79 | 83 | 1008.8 |
| 20260506150005 | 11 | 5 | 0.0 | 3.2 | 0.00 | 1.40 | 0.79 | 83 | 1008.7 |
| 20260506144540 | 11 | 9 | 0.0 | 3.2 | 0.00 | 1.40 | 0.79 | 84 | 1008.8 |
| 20260506143057 | 11 | 10 | 1.6 | 6.4 | 0.00 | 1.40 | 0.79 | 84 | 1008.8 |
| 20260506141529 | 11 | 28 | 4.8 | 9.7 | 0.00 | 1.40 | 0.79 | 83 | 1008.8 |
| 20260506140014 | 11 | 360 | 9.7 | 19.3 | 0.00 | 1.40 | 0.79 | 82 | 1008.8 |
| 20260506134556 | 11 | 15 | 6.4 | 14.5 | 0.00 | 1.40 | 0.79 | 83 | 1008.7 |
| 20260506133030 | 11 | 355 | 3.2 | 17.7 | 0.00 | 1.40 | 0.79 | 83 | 1008.8 |
| 20260506131512 | 11 | 83 | 9.7 | 16.1 | 0.00 | 1.40 | 0.79 | 82 | 1008.7 |
| 20260506130050 | 12 | 13 | 11.3 | 17.7 | 0.00 | 1.40 | 0.79 | 83 | 1008.6 |
| 20260506124523 | 12 | 12 | 9.7 | 24.1 | 0.00 | 1.40 | 0.79 | 84 | 1008.5 |
| 20260506123053 | 11 | 28 | 16.1 | 25.7 | 0.00 | 1.40 | 0.79 | 85 | 1008.4 |
| 20260506121527 | 11 | 360 | 11.3 | 19.3 | 0.00 | 1.40 | 0.79 | 87 | 1008.3 |
| 20260506120058 | 10 | 9 | 6.4 | 19.3 | 0.00 | 1.40 | 0.79 | 89 | 1008.2 |
| 20260506114520 | 10 | 355 | 9.7 | 20.9 | 0.00 | 1.40 | 0.79 | 89 | 1008.1 |
| 20260506113056 | 10 | 5 | 9.7 | 19.3 | 0.00 | 1.40 | 0.79 | 90 | 1008.0 |
| 20260506111512 | 10 | 344 | 6.4 | 17.7 | 0.00 | 1.40 | 0.79 | 91 | 1007.8 |
| 20260506110032 | 10 | 310 | 6.4 | 16.1 | 0.00 | 1.40 | 0.79 | 92 | 1007.8 |
| 20260506104559 | 10 | 338 | 11.3 | 17.7 | 0.00 | 1.40 | 0.79 | 92 | 1007.9 |
| 20260506103018 | 9 | 14 | 8.0 | 17.7 | 0.00 | 1.40 | 0.79 | 92 | 1007.9 |
| 20260506101540 | 9 | 348 | 9.7 | 14.5 | 0.00 | 1.40 | 0.79 | 92 | 1007.9 |
| 20260506100104 | 9 | 309 | 4.8 | 14.5 | 0.00 | 1.40 | 0.79 | 92 | 1007.8 |
| 20260506094524 | 9 | 9 | 4.8 | 16.1 | 0.03 | 1.40 | 0.79 | 92 | 1007.8 |
| 20260506093052 | 9 | 360 | 6.4 | 14.5 | 0.03 | 1.40 | 0.79 | 92 | 1007.6 |
| 20260506091534 | 8 | 347 | 3.2 | 9.7 | 0.03 | 1.40 | 0.79 | 92 | 1007.6 |
| 20260506090057 | 8 | 307 | 4.8 | 12.9 | 0.03 | 1.40 | 0.79 | 92 | 1007.5 |
| 20260506084510 | 8 | 339 | 3.2 | 14.5 | 0.00 | 1.37 | 0.79 | 92 | 1007.5 |
| 20260506083037 | 8 | 305 | 4.8 | 12.9 | 0.00 | 1.37 | 0.79 | 92 | 1007.3 |
| 20260506081504 | 8 | 296 | 4.8 | 9.7 | 0.00 | 1.37 | 0.79 | 92 | 1007.1 |
| 20260506073050 | 8 | 322 | 3.2 | 12.9 | 0.05 | 1.37 | 0.79 | 92 | 1006.9 |
| 20260506071511 | 8 | 317 | 6.4 | 16.1 | 0.08 | 1.37 | 0.79 | 92 | 1006.8 |
| 20260506061555 | 8 | 333 | 6.4 | 14.5 | 0.10 | 1.30 | 0.71 | 92 | 1006.3 |
| 20260506050111 | 8 | 304 | 6.4 | 16.1 | 0.13 | 1.17 | 0.56 | 92 | 1006.2 |
| 20260506044551 | 8 | 348 | 9.7 | 16.1 | 0.15 | 1.12 | 0.51 | 92 | 1006.3 |
| 20260506043028 | 8 | 5 | 8.0 | 16.1 | 0.13 | 1.09 | 0.51 | 92 | 1006.2 |
| 20260506041540 | 8 | 355 | 9.7 | 17.7 | 0.10 | 1.07 | 0.46 | 92 | 1006.2 |
| 20260506040004 | 8 | 328 | 6.4 | 12.9 | 0.08 | 1.02 | 0.43 | 92 | 1006.2 |
| 20260506034529 | 8 | 5 | 8.0 | 14.5 | 0.05 | 0.99 | 0.38 | 92 | 1006.2 |
| 20260506033057 | 8 | 338 | 4.8 | 12.9 | 0.05 | 0.99 | 0.38 | 92 | 1006.3 |
| 20260506031544 | 8 | 15 | 8.0 | 16.1 | 0.05 | 0.97 | 0.36 | 92 | 1006.3 |
| 20260506024540 | 8 | 323 | 6.4 | 16.1 | 0.05 | 0.91 | 0.33 | 92 | 1006.3 |
| 20260506023052 | 8 | 339 | 8.0 | 16.1 | 0.05 | 0.91 | 0.33 | 92 | 1006.3 |
| 20260506021521 | 8 | 312 | 8.0 | 16.1 | 0.05 | 0.91 | 0.33 | 92 | 1006.3 |
| 20260506020131 | 8 | 5 | 11.3 | 17.7 | 0.05 | 0.89 | 0.30 | 92 | 1006.3 |
| 20260506014522 | 9 | 15 | 4.8 | 12.9 | 0.05 | 0.89 | 0.28 | 92 | 1006.4 |
| 20260506013054 | 9 | 346 | 3.2 | 12.9 | 0.08 | 0.86 | 0.25 | 92 | 1006.5 |
| 20260506011506 | 9 | 38 | 4.8 | 14.5 | 0.10 | 0.86 | 0.25 | 92 | 1006.5 |
| 20260506010009 | 9 | 5 | 4.8 | 12.9 | 0.10 | 0.84 | 0.23 | 92 | 1006.5 |
| 20260506004536 | 9 | 337 | 8.0 | 14.5 | 0.08 | 0.81 | 0.23 | 92 | 1006.5 |
| 20260506003001 | 9 | 322 | 4.8 | 9.7 | 0.05 | 0.79 | 0.18 | 92 | 1006.6 |
| 20260506001527 | 9 | 355 | 4.8 | 9.7 | 0.08 | 0.76 | 0.15 | 92 | 1006.8 |
| 20260506000007 | 9 | 306 | 3.2 | 12.9 | 0.05 | 0.71 | 0.15 | 92 | 1006.9 |
| 20260505234551 | 9 | 330 | 3.2 | 12.9 | 0.08 | 0.71 | 0.15 | 92 | 1007.0 |
| 20260505233002 | 9 | 344 | 6.4 | 9.7 | 0.08 | 0.71 | 0.13 | 92 | 1006.9 |
| 20260505231530 | 9 | 5 | 4.8 | 9.7 | 0.05 | 0.69 | 0.08 | 91 | 1007.0 |
| 20260505230005 | 9 | 336 | 4.8 | 8.0 | 0.08 | 0.69 | 0.08 | 92 | 1007.1 |
| 20260505224538 | 9 | 27 | 4.8 | 8.0 | 0.05 | 0.66 | 0.05 | 92 | 1007.2 |
| 20260505223030 | 10 | 18 | 4.8 | 8.0 | 0.05 | 0.64 | 0.05 | 92 | 1007.2 |
| 20260505221513 | 10 | 30 | 3.2 | 12.9 | 0.05 | 0.61 | 0.03 | 92 | 1007.3 |
| 20260505220052 | 10 | 5 | 6.4 | 16.1 | 0.05 | 0.61 | 0.00 | 91 | 1007.3 |
| 20260505214601 | 10 | 342 | 4.8 | 14.5 | 0.05 | 0.61 | 0.58 | 91 | 1007.4 |
| 20260505213015 | 10 | 36 | 6.4 | 14.5 | 0.10 | 0.58 | 0.56 | 91 | 1007.5 |
| 20260505211608 | 10 | 9 | 6.4 | 14.5 | 0.15 | 0.58 | 0.56 | 91 | 1007.5 |
| 20260505210038 | 10 | 348 | 4.8 | 12.9 | 0.15 | 0.56 | 0.53 | 91 | 1007.6 |
| 20260505204524 | 10 | 23 | 8.0 | 14.5 | 0.15 | 0.53 | 0.51 | 91 | 1007.6 |